Weather History for Silver City, NM

Change the Weather History Date:

Tuesday, February 5, 2013

  Actual Average (KDMN) Record (KDMN)
Temperature  
Mean Temperature 48 °F 45 °F  
Max Temperature 62 °F 61 °F 77 °F (1963)
Min Temperature 33 °F 30 °F 8 °F (1955)
Degree Days  
Heating Degree Days 18    
Moisture  
Dew Point 30 °F    
Average Humidity 58    
Maximum Humidity 87    
Minimum Humidity 29    
Precipitation  
Precipitation 0.00 in 0.02 in 0.73 in (1988)
Month to date precipitation 0.10  
Year to date precipitation 0.71  
Sea Level Pressure  
Sea Level Pressure 30.07 in    
Wind  
Wind Speed 9 mph (NW)    
Max Wind Speed 14 mph    
Max Gust Speed 22 mph    
Visibility 10 miles    
Events      
T = Trace of Precipitation, MM = Missing Value Source: NWS Daily Summary

Daily Weather History Graph

Daily Weather History Graph

Search for Another Location

Airport:

Trip Planner

Search our weather history database for the weather conditions in past years. The results will help you decide how hot, cold, wet, or windy it might be!

Date:

Astronomy

Feb. 05, 2013 Rise Set
Actual Time 7:04 AM MST 5:49 PM MST
Civil Twilight 6:38 AM MST 6:15 PM MST
Nautical Twilight 6:09 AM MST 6:44 PM MST
Astronomical Twilight 5:40 AM MST 7:13 PM MST
Moon 2:43 AM MST (2/5) 1:16 PM MST (2/5)
Length of Visible Light 11h 36m
Length of Day
10h 45m
Waning Crescent, 26% of the Moon is Illuminated
Feb 5
Waning Crescent
Feb 10
New
Feb 17
First Quarter
Feb 25
Full
Mar 4
Last Quarter

Hourly Weather History & Observations

Time (MST) Temp. Windchill Dew Point Humidity Pressure Visibility Wind Dir Wind Speed Gust Speed Precip Events Conditions
12:15 AM 39.2 °F 32.0 °F 32.0 °F 75% 30.09 in 10.0 mi NNW 11.5 mph - N/A   Clear
12:35 AM 39.2 °F 32.0 °F 32.0 °F 75% 30.08 in 10.0 mi NNW 11.5 mph - N/A   Clear
12:55 AM 39.2 °F 33.0 °F 32.0 °F 75% 30.09 in 10.0 mi NNW 9.2 mph - N/A   Clear
1:15 AM 37.4 °F 30.3 °F 32.0 °F 81% 30.08 in 10.0 mi NNW 10.4 mph - N/A   Clear
1:35 AM 37.4 °F 30.3 °F 32.0 °F 81% 30.08 in 10.0 mi NNW 10.4 mph - N/A   Clear
1:55 AM 37.4 °F 30.3 °F 32.0 °F 81% 30.08 in 10.0 mi NNW 10.4 mph - N/A   Clear
2:15 AM 37.4 °F 29.8 °F 32.0 °F 81% 30.08 in 10.0 mi NNW 11.5 mph - N/A   Clear
2:55 AM 37.4 °F 30.3 °F 32.0 °F 81% 30.07 in 10.0 mi NNW 10.4 mph - N/A   Clear
3:15 AM 35.6 °F 28.6 °F 32.0 °F 87% 30.07 in 10.0 mi NNW 9.2 mph - N/A   Clear
3:35 AM 35.6 °F 28.6 °F 32.0 °F 87% 30.07 in 10.0 mi NNW 9.2 mph - N/A   Clear
3:55 AM 35.6 °F 28.6 °F 32.0 °F 87% 30.07 in 10.0 mi NNW 9.2 mph - N/A   Clear
4:15 AM 35.6 °F 28.0 °F 32.0 °F 87% 30.07 in 10.0 mi NW 10.4 mph - N/A   Clear
4:35 AM 35.6 °F 27.1 °F 32.0 °F 87% 30.07 in 10.0 mi NW 12.7 mph - N/A   Clear
4:55 AM 37.4 °F 30.3 °F 32.0 °F 81% 30.07 in 10.0 mi NNW 10.4 mph - N/A   Clear
5:15 AM 37.4 °F 30.8 °F 32.0 °F 81% 30.07 in 10.0 mi NNW 9.2 mph - N/A   Clear
5:35 AM 37.4 °F 29.8 °F 32.0 °F 81% 30.07 in 10.0 mi NW 11.5 mph - N/A   Clear
5:55 AM 37.4 °F 30.3 °F 32.0 °F 81% 30.08 in 10.0 mi NW 10.4 mph - N/A   Clear
6:15 AM 37.4 °F 29.8 °F 32.0 °F 81% 30.08 in 10.0 mi NW 11.5 mph - N/A   Clear
6:35 AM 37.4 °F 29.8 °F 32.0 °F 81% 30.08 in 10.0 mi NNW 11.5 mph - N/A   Clear
6:55 AM 37.4 °F 31.4 °F 32.0 °F 81% 30.09 in 10.0 mi NNW 8.1 mph - N/A   Clear
7:15 AM 33.8 °F 27.0 °F 30.2 °F 87% 30.09 in 10.0 mi North 8.1 mph - N/A   Clear
7:35 AM 35.6 °F 29.2 °F 32.0 °F 87% 30.10 in 10.0 mi North 8.1 mph - N/A   Clear
7:55 AM 39.2 °F 33.0 °F 32.0 °F 75% 30.11 in 10.0 mi NNW 9.2 mph - N/A   Clear
8:15 AM 42.8 °F 38.0 °F 33.8 °F 70% 30.11 in 10.0 mi NNW 8.1 mph - N/A   Clear
8:55 AM 48.2 °F - 33.8 °F 58% 30.12 in 10.0 mi NNE 3.5 mph - N/A   Clear
9:15 AM 48.2 °F - 33.8 °F 58% 30.12 in 10.0 mi Calm Calm - N/A   Clear
9:35 AM 50.0 °F - 32.0 °F 50% 30.12 in 10.0 mi Calm Calm - N/A   Clear
9:55 AM 53.6 °F - 32.0 °F 44% 30.12 in 10.0 mi Calm Calm - N/A   Clear
10:15 AM 55.4 °F - 33.8 °F 44% 30.13 in 10.0 mi Calm Calm - N/A   Clear
10:35 AM 55.4 °F - 32.0 °F 41% 30.13 in 10.0 mi WNW 3.5 mph - N/A   Clear
10:55 AM 57.2 °F - 32.0 °F 38% 30.12 in 10.0 mi NW 4.6 mph - N/A   Clear
11:15 AM 57.2 °F - 30.2 °F 36% 30.11 in 10.0 mi WSW 5.8 mph - N/A   Clear
11:35 AM 57.2 °F - 30.2 °F 36% 30.11 in 10.0 mi Calm Calm - N/A   Clear
11:55 AM 59.0 °F - 28.4 °F 31% 30.10 in 10.0 mi SSE 8.1 mph - N/A   Clear
12:15 PM 59.0 °F - 28.4 °F 31% 30.08 in 10.0 mi South 5.8 mph - N/A   Clear
12:35 PM 59.0 °F - 26.6 °F 29% 30.07 in 10.0 mi SW 3.5 mph - N/A   Clear
12:55 PM 59.0 °F - 26.6 °F 29% 30.06 in 10.0 mi SW 6.9 mph - N/A   Clear
1:15 PM 60.8 °F - 28.4 °F 29% 30.04 in 10.0 mi SE 9.2 mph - N/A   Clear
1:35 PM 59.0 °F - 28.4 °F 31% 30.03 in 10.0 mi Calm Calm - N/A   Clear
1:55 PM 60.8 °F - 28.4 °F 29% 30.03 in 10.0 mi SW 3.5 mph 16.1 mph N/A   Clear
2:15 PM 60.8 °F - 28.4 °F 29% 30.02 in 10.0 mi SW 6.9 mph 17.3 mph N/A   Clear
2:35 PM 60.8 °F - 30.2 °F 31% 30.02 in 10.0 mi SSE 4.6 mph 21.9 mph N/A   Clear
2:55 PM 62.6 °F - 30.2 °F 30% 30.02 in 10.0 mi South 11.5 mph - N/A   Clear
3:15 PM 60.8 °F - 30.2 °F 31% 30.02 in 10.0 mi SSW 9.2 mph 16.1 mph N/A   Clear
3:35 PM 60.8 °F - 30.2 °F 31% 30.01 in 10.0 mi South 5.8 mph - N/A   Clear
3:55 PM 60.8 °F - 30.2 °F 31% 30.01 in 10.0 mi SSW 6.9 mph - N/A   Clear
4:15 PM 60.8 °F - 32.0 °F 34% 30.01 in 10.0 mi South 13.8 mph - N/A   Clear
4:35 PM 60.8 °F - 32.0 °F 34% 30.01 in 10.0 mi South 13.8 mph - N/A   Clear
4:55 PM 59.0 °F - 32.0 °F 36% 30.01 in 10.0 mi SSW 6.9 mph - N/A   Clear
5:15 PM 59.0 °F - 30.2 °F 34% 30.02 in 10.0 mi WNW 12.7 mph - N/A   Clear
5:35 PM 57.2 °F - 28.4 °F 33% 30.02 in 10.0 mi West 11.5 mph - N/A   Clear
5:55 PM 55.4 °F - 28.4 °F 36% 30.03 in 10.0 mi West 5.8 mph - N/A   Clear
6:15 PM 51.8 °F - 28.4 °F 41% 30.03 in 10.0 mi WNW 6.9 mph - N/A   Clear
7:15 PM 48.2 °F - 28.4 °F 46% 30.05 in 10.0 mi West 3.5 mph - N/A   Clear
7:35 PM 42.8 °F 39.3 °F 26.6 °F 53% 30.05 in 10.0 mi NNW 5.8 mph - N/A   Clear
7:55 PM 42.8 °F 37.0 °F 28.4 °F 57% 30.05 in 10.0 mi North 10.4 mph - N/A   Clear
8:15 PM 44.6 °F 41.4 °F 28.4 °F 53% 30.05 in 10.0 mi NNW 5.8 mph - N/A   Clear
8:35 PM 42.8 °F 37.0 °F 28.4 °F 57% 30.05 in 10.0 mi North 10.4 mph - N/A   Clear
8:55 PM 41.0 °F 36.4 °F 28.4 °F 61% 30.06 in 10.0 mi North 6.9 mph - N/A   Clear
9:15 PM 39.2 °F 33.0 °F 28.4 °F 65% 30.06 in 10.0 mi North 9.2 mph - N/A   Clear
9:35 PM 39.2 °F 33.0 °F 28.4 °F 65% 30.06 in 10.0 mi NNW 9.2 mph - N/A   Clear
9:55 PM 37.4 °F 30.8 °F 26.6 °F 65% 30.06 in 10.0 mi North 9.2 mph - N/A   Clear
10:15 PM 37.4 °F 30.3 °F 26.6 °F 65% 30.06 in 10.0 mi NNW 10.4 mph - N/A   Clear
10:35 PM 37.4 °F 30.8 °F 28.4 °F 70% 30.06 in 10.0 mi North 9.2 mph - N/A   Clear
10:55 PM 37.4 °F 31.4 °F 26.6 °F 65% 30.06 in 10.0 mi NNW 8.1 mph - N/A   Clear
11:15 PM 35.6 °F 29.2 °F 26.6 °F 70% 30.06 in 10.0 mi NNW 8.1 mph - N/A   Clear
11:35 PM 35.6 °F 29.2 °F 26.6 °F 70% 30.05 in 10.0 mi NNW 8.1 mph - N/A   Clear
11:55 PM 33.8 °F 27.7 °F 26.6 °F 75% 30.05 in 10.0 mi NNW 6.9 mph - N/A   Clear